Погода в Кургане

Хотите узнать прогноз погоды в Кургане? Тогда Вам сюда: Погода в Кургане

Поиск расширенной информации на нашем сайте:

Полезная информация:

Новости сайта



14.11.2019
Обновлён Долгосрочный прогноз погоды по России и другим странам хСССР на ноябрь-декабрь 2019 года.
Опубликованы прогностические карты: Предварительный прогноз на декабрь 2019 года, Предварительный прогноз на январь 2020 года, Предварительная схема синоптических процессов на декабрь 2019 г..

11.11.2019
Обновлены Долгосрочный прогноз погоды по России и другим странам хСССР на ноябрь-декабрь 2019 года и Предварительный прогноз на зиму 2019/2020 годов

04.11.2019
Опубликован Долгосрочный прогноз погоды по России и другим странам хСССР на ноябрь 2019 года
Сравнение прогнозируемой аномалии приземной температуры воздуха на ноябрь 2019 года по разным моделям
Предварительный прогноз на зиму 2019/2020 года




Погода в Кургане - сегодня

Время (UTC), дата Ветер
(°,м/с) 
Видим.   Явления Облачность Т
(°С)
Тd
(°С)
f(%) Тe
(°С)
Pmin
(гПа)
dP
(гПа)
Po
(мм)
O2
(г/м3)
Тmin Tmax R s Состояние
почвы
00 18.11.19 290 (З) 10 км  {снег}  10/6 1000 м средняя 
[Sc|Ac und]
-0.3 -4 76 -3  1022.4  760  307           
03 18.11.19 290 (З) 10 км    6/3 1000 м верхняя 
[Sc|Ci]
-2.7 -6.1 77 -5  1023.2  0.7  760  310  -2.8    0.0  равномерный
мокрый или
старый снег
100% 
06 18.11.19 310 (СЗ) 5-10{10}  20000 м    10/5 1000 м средняя 
[Sc|Ac und]
-2.9 -7.9 68 -6  1024.1  0.9  761  311  -2.9         
09 18.11.19 310 (СЗ) 5{10}  20000 м    8/8 1000 м 
[Sc]
-2.9 -8.3 66 -6  1024.6  0.4  761  311           
12 18.11.19 010 (С) 5{11}  10 км  слаб. снег  10/10 1000 м 
[Sc]
-5.6 -10.6 68 -10  1025.8  1.2  762  315           
15 18.11.19 010 (С) 3{10}  10 км  {снег}  ясно 
-13.4 -18.7 64 -17  1029.5  3.4  765  326    -2.6  0.0     
18 18.11.19 020 (С) 10 км  {снег}  ясно 
-18.6 -21.9 75 -21  1032  2.2  766  333           
21 18.11.19 010 (С) 10 км    ясно 
-21.7 -24.6 77 -25  1033.1  767  338           
00 19.11.19 360 (С) 10 км    ясно 
-23.3 -26.5 75 -26  1034.5  1.3  768  340           
03 19.11.19 340 (С) 10 км    ясно 
-24.7 -28.2 73 -30  1035.8  1.1  769  343  -25.1      равномерный
сухой снег
100% 
06 19.11.19 350 (С) 20000 м    ясно 
-23.9 -28.3 67 -29  1036.8  1.1  770  342           
09 19.11.19 330 (СЗ) 20000 м    ясно 
-21.8 -27.5 60 -26  1036.7  0.1  770  339           
12 19.11.19 330 (СЗ) 10 км    ясно 
-23.1 -27.9 65 -28  1037.5  0.8  770  341           
15 19.11.19 350 (С) 10 км    ясно 
-24.6 -28.8 68 -28  1038.8  1.2  771  343    -21.5       
18 19.11.19 330 (СЗ) 10 км    ясно 
-25.6 -29.5 70 -31  1040  1.1  772  345           
21 19.11.19 320 (СЗ) 10 км    10/0 средняя 
[Ac und]
-25.1 -28.9 71 -31  1040.5  0.5  772  345           
00 20.11.19 330 (СЗ) 10 км    8/0 средняя, верхняя 
[Ac trans|Ci fib]
-23.4 -27.5 69 -28  1040.9  0.5  773  342           
03 20.11.19 330 (СЗ) 10 км    ясно 
-24.8 -28.3 73 -28  1041.9  774  345  -25.8      равномерный
сухой снег
100% 
06 20.11.19 350 (С) 10 км  слаб. снег  10/8 600 м средняя 
[Sc|Ac und]
-22.5 -26.7 69 -27  1043.1  1.2  774  342           
09 20.11.19 350 (С) 20000 м  {снег}  4/0 верхняя 
[Ci]
-19.2 -24.7 62 -23  1043  0.1  775  337           
12 20.11.19 330 (СЗ) 10 км  {снег}  4/0 верхняя 
[Ci fib]
-20.2 -24.6 68 -25  1043.9  0.9  775  339           
15 20.11.19 320 (СЗ) 10 км    ясно 
-21.2 -24.5 75 -24  1044.9  0.9  776  341    -18.8  0.0     
18 20.11.19 300 (СЗ) 10 км    ясно 
-22.2 -24.9 79 -23  1045.1  0.1  776  342           
21 20.11.19 270 (З) 10 км    6/6 1000 м 
[Sc]
-20.5 -23.4 78 -21  1044.2  0.1  775  340           
00 21.11.19 200 (Ю) 10 км  слаб. снег  10/6 1000 м верхняя 
[Sc|Ci]
-20 -23.1 76 -23  1043.3  -0.8  775  339           
Время (UTC), дата Ветер
(°,м/с) 
Видим.   Явления Облачность Т
(°С)
Тd
(°С)
f(%) Тe
(°С)
Pmin
(гПа)
dP
(гПа)
Po
(мм)
O2
(г/м3)
Тmin Tmax R s Состояние
почвы

Для получения пояснительной информации подведите курсор к названию столбца.

ПОГОДА в Кургане - архив

Всё, что Вы хотите узнать о погоде в Кургане - удобно и подробно!

Выберите нужную дату (начиная с 1 января 2019* года) и нажмите кнопку "Найти".
Будут отображены архивные сводки погоды по пункту Курган, начиная с указанной даты.


Отображать данные в формате CSV (для использования в таблицах Excel)


Внимание! Наш архив погоды предназначен исключительно для личного некоммерческого использования в познавательных целях. Если Вам необходимы официальные справки о состоянии погоды (для производственных, юридических, коммерческих и т.п. целей), обращайтесь в органы Росгидромета.

*Примечание: данная дата относится к архиву по метеостанциям СССР (Россия, СНГ, Балтия).
Архив по метеостанциям Зарубежной Европы и Азии (кроме Китая) хранится 10 дней, по другим регионам земного шара (Китай, Африка, Америка, Австралия, Океания) - 1 день.

Курган - район местоположения метеостанции


Название, широта, долгота, высота метеостанции:
Курган 55.5°ш. 65.4°д. 74 м над ур. моря [Российская Федерация]

Дополнительная информация

В oтличие oт бoльшинства пoгoдных сайтoв мы публикуем пoдрoбную метеoинфoрмацию в детальнoм прoфессиoнальнoм фoрмате.

Характеристики температуры и влажнoсти вoздуха измеряются на высoте 2 м в тени вдали oт зданий и деревьев.
Скoрoсть ветра измеряется на высoте 10 м (на урoвне рoста челoвека скoрoсть ветра ниже в 1.5-2 раза). Если метеoстанция нахoдится в гoрoде или в лесу, тo скoрoсть ветра занижена на 2-4 м/с пo сравнению с oткрытым местoм. Скoрoсть ветра над акватoриями крупных рек и oзёр, а также на вершинах хoлмoв на 2-5 м/с выше, чем в oбычных услoвиях.
Атмoсфернoе давление в разных тoчках местнoсти мoжет значительнo oтличаться oт давления на метеoстанции, в зависимoсти oт услoвий рельефа (при пoдъёме на 10 м давление пoнижается примернo на 1 мм рт.ст.).